,,Stat6,,Stat2,,Stat8,,Stat9,,Stat10,,Wind1,,Wind1,
time,status,PA1M_AVG,status,PR1M_SUM,status,RH1M_AVG,status,SR1M_AVG,status,TA1M_AVG,status,W1dAve1m,status,W1sAve1m,
2007-01-22, 17:13:00,VALID,919.644,VALID,0,VALID,76.4298,VALID,655.986,VALID,25.5441,VALID,343,VALID,1.22238,
2007-01-22, 17:14:00,VALID,919.628,VALID,0,VALID,76.9575,VALID,642.079,VALID,25.5018,VALID,31,VALID,1.32352,
2007-01-22, 17:15:00,VALID,919.625,VALID,0,VALID,78.0079,VALID,702.021,VALID,25.5186,VALID,35,VALID,1.01469,
2007-01-22, 17:16:00,VALID,919.625,VALID,0,VALID,74.1587,VALID,658.211,VALID,25.4465,VALID,59,VALID,1.33229,
2007-01-22, 17:17:00,VALID,919.608,VALID,0,VALID,75.5104,VALID,538.072,VALID,25.4856,VALID,21,VALID,0.521875,
2007-01-22, 17:18:00,VALID,919.612,VALID,0,VALID,74.0341,VALID,471.15,VALID,25.6291,VALID,77,VALID,0.656441,
2007-01-22, 17:19:00,VALID,919.608,VALID,0,VALID,73.1122,VALID,332.451,VALID,25.6844,VALID,69,VALID,0.944271,
2007-01-22, 17:20:00,VALID,919.612,VALID,0,VALID,73.1986,VALID,345.798,VALID,25.7035,VALID,12,VALID,0.664426,
2007-01-22, 17:21:00,VALID,919.596,VALID,0,VALID,74.0697,VALID,576.992,VALID,25.6741,VALID,26,VALID,0.257813,
2007-01-22, 17:22:00,VALID,919.585,VALID,0,VALID,73.8675,VALID,935.066,VALID,25.7006,VALID,87,VALID,1.19713,
2007-01-22, 17:23:00,VALID,919.572,VALID,0,VALID,74.3825,VALID,928.325,VALID,25.7093,VALID,109,VALID,1.05774,
2007-01-22, 17:24:00,VALID,919.563,VALID,0,VALID,75.2853,VALID,923.961,VALID,25.6928,VALID,116,VALID,1.0787,
2007-01-22, 17:25:00,VALID,919.542,VALID,0,VALID,73.3042,VALID,898.065,VALID,25.5541,VALID,148,VALID,1.28609,
2007-01-22, 17:26:00,VALID,919.526,VALID,0,VALID,76.8291,VALID,843.319,VALID,25.3593,VALID,170,VALID,0.796512,
2007-01-22, 17:27:00,VALID,919.524,VALID,0,VALID,77.6226,VALID,889.269,VALID,25.4346,VALID,140,VALID,1.02623,
2007-01-22, 17:28:00,VALID,919.518,VALID,0,VALID,77.0236,VALID,899.322,VALID,25.4627,VALID,145,VALID,0.691067,
2007-01-22, 17:29:00,VALID,919.504,VALID,0,VALID,77.2385,VALID,906.573,VALID,25.5797,VALID,144,VALID,0.967901,
2007-01-22, 17:30:00,VALID,919.5,VALID,0,VALID,77.0936,VALID,917.491,VALID,25.5794,VALID,108,VALID,0.910442,
2007-01-22, 17:31:00,VALID,919.488,VALID,0,VALID,76.8672,VALID,930.787,VALID,25.8386,VALID,89,VALID,0.927734,
2007-01-22, 17:32:00,VALID,919.481,VALID,0,VALID,74.3075,VALID,949.449,VALID,26.1318,VALID,75,VALID,0.683254,
2007-01-22, 17:33:00,VALID,919.483,VALID,0,VALID,73.6145,VALID,304.042,VALID,26.4027,VALID,89,VALID,0.956055,
2007-01-22, 17:34:00,VALID,919.477,VALID,0,VALID,73.8294,VALID,251.333,VALID,26.3387,VALID,77,VALID,0.753819,
2007-01-22, 17:35:00,VALID,919.48,VALID,0,VALID,72.5628,VALID,530.498,VALID,26.2026,VALID,115,VALID,1.44824,
2007-01-22, 17:36:00,VALID,919.473,VALID,0,VALID,73.6831,VALID,740.789,VALID,26.0503,VALID,71,VALID,0.850497,
2007-01-22, 17:37:00,VALID,919.464,VALID,0,VALID,72.6493,VALID,472.169,VALID,26.1725,VALID,63,VALID,0.632617,
2007-01-22, 17:38:00,VALID,919.461,VALID,0,VALID,72.7078,VALID,960.758,VALID,26.3606,VALID,41,VALID,0.490663,
2007-01-22, 17:39:00,VALID,919.454,VALID,0,VALID,72.7663,VALID,910.971,VALID,26.5155,VALID,336,VALID,1.17351,
2007-01-22, 17:40:00,VALID,919.458,VALID,0,VALID,72.1254,VALID,770.471,VALID,26.4311,VALID,17,VALID,0.970526,
2007-01-22, 17:41:00,VALID,919.454,VALID,0,VALID,74.1104,VALID,577.688,VALID,26.3926,VALID,90,VALID,0.584666,
2007-01-22, 17:42:00,VALID,919.442,VALID,0,VALID,74.6559,VALID,887.809,VALID,26.5022,VALID,187,VALID,0.65811,
2007-01-22, 17:43:00,VALID,919.433,VALID,0,VALID,73.0956,VALID,960.572,VALID,26.4631,VALID,223,VALID,0.683594,
2007-01-22, 17:44:00,VALID,919.422,VALID,0,VALID,74.0214,VALID,960.419,VALID,26.6865,VALID,231,VALID,0.656622,
2007-01-22, 17:45:00,VALID,919.416,VALID,0,VALID,71.028,VALID,884.175,VALID,26.9351,VALID,240,VALID,0.760356,
2007-01-22, 17:46:00,VALID,919.418,VALID,0,VALID,71.3065,VALID,988.454,VALID,26.971,VALID,180,VALID,0.754836,
2007-01-22, 17:47:00,VALID,919.404,VALID,0,VALID,70.0489,VALID,811.921,VALID,27.0117,VALID,121,VALID,0.738653,
2007-01-22, 17:48:00,VALID,919.406,VALID,0,VALID,70.4914,VALID,801.037,VALID,27.2186,VALID,112,VALID,1.05525,
2007-01-22, 17:49:00,VALID,919.402,VALID,0,VALID,70.0972,VALID,799.797,VALID,27.0954,VALID,88,VALID,0.72093,
2007-01-22, 17:50:00,VALID,919.411,VALID,0,VALID,69.2363,VALID,353.048,VALID,27.1381,VALID,89,VALID,0.744665,
2007-01-22, 17:51:00,VALID,919.409,VALID,0,VALID,70.7699,VALID,317.185,VALID,27.2287,VALID,319,VALID,0.653764,
2007-01-22, 17:52:00,VALID,919.41,VALID,0,VALID,72.1979,VALID,331.33,VALID,27.2549,VALID,33,VALID,0.637891,
2007-01-22, 17:53:00,VALID,919.415,VALID,0,VALID,72.1636,VALID,604.093,VALID,27.1482,VALID,196,VALID,1.06938,
2007-01-22, 17:54:00,VALID,919.407,VALID,0,VALID,69.2872,VALID,306.368,VALID,26.6545,VALID,169,VALID,0.839931,
2007-01-22, 17:55:00,VALID,919.391,VALID,0,VALID,71.2404,VALID,340.415,VALID,26.4498,VALID,226,VALID,0.768043,
2007-01-22, 17:56:00,VALID,919.4,VALID,0,VALID,72.4853,VALID,577.246,VALID,26.2523,VALID,234,VALID,0.74782,
2007-01-22, 17:57:00,VALID,919.393,VALID,0,VALID,74.7525,VALID,531.262,VALID,26.2523,VALID,196,VALID,0.642475,
2007-01-22, 17:58:00,VALID,919.385,VALID,0,VALID,74.8212,VALID,260.282,VALID,26.2319,VALID,175,VALID,0.484715,
2007-01-22, 17:59:00,VALID,919.389,VALID,0,VALID,75.3604,VALID,242.843,VALID,26.1896,VALID,206,VALID,0.547619,
2007-01-22, 18:00:00,VALID,919.378,VALID,0,VALID,72.9761,VALID,354.203,VALID,26.0548,VALID,193,VALID,0.638021,
2007-01-22, 18:01:00,VALID,919.37,VALID,0,VALID,74.5415,VALID,938.819,VALID,25.9704,VALID,184,VALID,0.819957,
2007-01-22, 18:02:00,VALID,919.348,VALID,0,VALID,73.0715,VALID,947.547,VALID,26.1259,VALID,148,VALID,1.04901,
2007-01-22, 18:03:00,VALID,919.354,VALID,0,VALID,74.7653,VALID,871.966,VALID,26.2226,VALID,142,VALID,1.12891,
2007-01-22, 18:04:00,VALID,919.349,VALID,0,VALID,70.0463,VALID,973.273,VALID,26.2384,VALID,145,VALID,1.66632,
2007-01-22, 18:05:00,VALID,919.362,VALID,0,VALID,69.1867,VALID,923.74,VALID,26.0121,VALID,119,VALID,1.78524,
2007-01-22, 18:06:00,VALID,919.343,VALID,0,VALID,69.0596,VALID,718.272,VALID,26.0745,VALID,99,VALID,1.39634,
2007-01-22, 18:07:00,VALID,919.349,VALID,0,VALID,68.5344,VALID,731.398,VALID,26.3357,VALID,93,VALID,1.3342,
2007-01-22, 18:08:00,VALID,919.337,VALID,0,VALID,66.0815,VALID,982.426,VALID,26.4812,VALID,73,VALID,0.982515,
2007-01-22, 18:09:00,VALID,919.313,VALID,0,VALID,67.2094,VALID,982.918,VALID,26.7685,VALID,24,VALID,0.499256,
2007-01-22, 18:10:00,VALID,919.313,VALID,0,VALID,67.8592,VALID,982.783,VALID,27.0663,VALID,357,VALID,0.996875,
2007-01-22, 18:11:00,VALID,919.31,VALID,0,VALID,66.8902,VALID,987.503,VALID,27.2549,VALID,67,VALID,0.760671,
2007-01-22, 18:12:00,VALID,919.304,VALID,0,VALID,68.0995,VALID,985.941,VALID,27.2891,VALID,174,VALID,0.575707,
2007-01-22, 18:13:00,VALID,919.315,VALID,0,VALID,68.6984,VALID,984.328,VALID,27.3343,VALID,147,VALID,0.952172,
2007-01-22, 18:14:00,VALID,919.305,VALID,0,VALID,67.5921,VALID,861.947,VALID,27.3793,VALID,133,VALID,0.778274,
2007-01-22, 18:15:00,VALID,919.273,VALID,0,VALID,67.7066,VALID,718.748,VALID,27.4152,VALID,188,VALID,1.2883,
2007-01-22, 18:16:00,VALID,919.282,VALID,0,VALID,65.6453,VALID,732.281,VALID,27.0627,VALID,166,VALID,1.9043,
2007-01-22, 18:17:00,VALID,919.289,VALID,0,VALID,66.5443,VALID,809.476,VALID,26.58,VALID,134,VALID,1.61204,
2007-01-22, 18:18:00,VALID,919.246,VALID,0,VALID,68.4963,VALID,814.978,VALID,26.4346,VALID,58,VALID,0.536519,
2007-01-22, 18:19:00,VALID,919.226,VALID,0,VALID,70.6135,VALID,907.965,VALID,26.6324,VALID,213,VALID,1.01867,
2007-01-22, 18:20:00,VALID,919.203,VALID,0,VALID,69.1168,VALID,983.428,VALID,26.8225,VALID,198,VALID,0.505335,
2007-01-22, 18:21:00,VALID,919.177,VALID,0,VALID,68.2012,VALID,965.649,VALID,26.9942,VALID,182,VALID,1.12012,
2007-01-22, 18:22:00,VALID,919.176,VALID,0,VALID,67.2946,VALID,971.151,VALID,27.0032,VALID,144,VALID,1.58503,
2007-01-22, 18:23:00,VALID,919.146,VALID,0,VALID,66.3714,VALID,974.819,VALID,26.9651,VALID,111,VALID,1.05469,
2007-01-22, 18:24:00,VALID,919.111,VALID,0,VALID,66.8088,VALID,970.522,VALID,27.1063,VALID,136,VALID,1.79609,
2007-01-22, 18:25:00,VALID,919.111,VALID,0,VALID,68.1135,VALID,750.417,VALID,26.8247,VALID,149,VALID,1.94368,
2007-01-22, 18:26:00,VALID,919.137,VALID,0,VALID,70.6618,VALID,772.611,VALID,26.8671,VALID,187,VALID,1.32326,
2007-01-22, 18:27:00,VALID,919.148,VALID,0,VALID,68.5713,VALID,641.026,VALID,26.8991,VALID,215,VALID,1.17042,
2007-01-22, 18:28:00,VALID,919.138,VALID,0,VALID,68.3983,VALID,510.138,VALID,27.0675,VALID,181,VALID,0.739648,
2007-01-22, 18:29:00,VALID,919.112,VALID,0,VALID,65.48,VALID,303.617,VALID,27.041,VALID,109,VALID,2.0359,
2007-01-22, 18:30:00,VALID,919.133,VALID,0,VALID,65.4902,VALID,315.453,VALID,26.7543,VALID,135,VALID,2.03767,
2007-01-22, 18:31:00,VALID,919.137,VALID,0,VALID,70.0692,VALID,740.755,VALID,26.4623,VALID,212,VALID,0.382086,
2007-01-22, 18:32:00,VALID,919.113,VALID,0,VALID,69.4614,VALID,680.405,VALID,26.602,VALID,125,VALID,0.385356,
2007-01-22, 18:33:00,VALID,919.107,VALID,0,VALID,68.7607,VALID,667.279,VALID,26.7665,VALID,114,VALID,0.713663,
2007-01-22, 18:34:00,VALID,919.1,VALID,0,VALID,67.9647,VALID,701.495,VALID,26.6922,VALID,134,VALID,2.06214,
2007-01-22, 18:35:00,VALID,919.102,VALID,0,VALID,68.4314,VALID,617.881,VALID,26.3531,VALID,136,VALID,2.82993,
2007-01-22, 18:36:00,VALID,919.086,VALID,0,VALID,68.0347,VALID,432.196,VALID,26.0111,VALID,146,VALID,2.04244,
2007-01-22, 18:37:00,VALID,919.088,VALID,0,VALID,69.7564,VALID,487.418,VALID,25.8689,VALID,142,VALID,2.07752,
2007-01-22, 18:38:00,VALID,919.067,VALID,0,VALID,68.5725,VALID,661.522,VALID,25.7067,VALID,149,VALID,2.45543,
2007-01-22, 18:39:00,VALID,919.061,VALID,0,VALID,68.1491,VALID,643.098,VALID,25.6521,VALID,143,VALID,2.91513,
2007-01-22, 18:40:00,VALID,919.085,VALID,0,VALID,66.2633,VALID,678.979,VALID,25.5681,VALID,141,VALID,3.42281,
2007-01-22, 18:41:00,VALID,919.077,VALID,0,VALID,66.6003,VALID,856.072,VALID,25.5096,VALID,142,VALID,2.7224,
2007-01-22, 18:42:00,VALID,919.044,VALID,0,VALID,67.4205,VALID,850.383,VALID,25.5781,VALID,122,VALID,1.06195,
2007-01-22, 18:43:00,VALID,919.016,VALID,0,VALID,67.7257,VALID,559.943,VALID,25.8628,VALID,134,VALID,1.4435,
2007-01-22, 18:44:00,VALID,919.001,VALID,0,VALID,67.568,VALID,447.869,VALID,26.0396,VALID,132,VALID,1.7951,
2007-01-22, 18:45:00,VALID,918.987,VALID,0,VALID,67.0771,VALID,455.29,VALID,25.9953,VALID,141,VALID,2.01763,
2007-01-22, 18:46:00,VALID,918.971,VALID,0,VALID,68.4988,VALID,374.173,VALID,25.7917,VALID,145,VALID,2.15305,
2007-01-22, 18:47:00,VALID,918.932,VALID,0,VALID,68.5535,VALID,345.917,VALID,25.6175,VALID,137,VALID,3.15552,
2007-01-22, 18:48:00,VALID,918.951,VALID,0,VALID,70.1125,VALID,339.26,VALID,25.5196,VALID,151,VALID,1.3988,
2007-01-22, 18:49:00,VALID,918.917,VALID,0,VALID,72.3899,VALID,375.124,VALID,25.6165,VALID,233,VALID,0.467478,
2007-01-22, 18:50:00,VALID,918.91,VALID,0,VALID,74.4982,VALID,337.596,VALID,25.8479,VALID,315,VALID,0.748326,
2007-01-22, 18:51:00,VALID,918.926,VALID,0,VALID,71.1781,VALID,341.434,VALID,25.9333,VALID,96,VALID,1.44371,
2007-01-22, 18:52:00,VALID,918.902,VALID,0,VALID,71.922,VALID,367.856,VALID,25.9646,VALID,35,VALID,0.740234,
2007-01-22, 18:53:00,VALID,918.917,VALID,0,VALID,71.3879,VALID,419.138,VALID,26.0726,VALID,69,VALID,0.740589,
2007-01-22, 18:54:00,VALID,918.904,VALID,0,VALID,69.3304,VALID,416.234,VALID,25.9271,VALID,145,VALID,0.903201,
2007-01-22, 18:55:00,VALID,918.902,VALID,0,VALID,70.2333,VALID,424.215,VALID,26.0206,VALID,168,VALID,0.556402,
2007-01-22, 18:56:00,VALID,918.878,VALID,0,VALID,68.9871,VALID,430.006,VALID,26.1301,VALID,129,VALID,0.939453,
2007-01-22, 18:57:00,VALID,918.889,VALID,0,VALID,67.8566,VALID,453.728,VALID,26.124,VALID,138,VALID,1.26563,
2007-01-22, 18:58:00,VALID,918.898,VALID,0,VALID,68.6539,VALID,420.327,VALID,26.0306,VALID,142,VALID,1.43027,
2007-01-22, 18:59:00,VALID,918.874,VALID,0,VALID,68.0245,VALID,400.187,VALID,25.8858,VALID,126,VALID,1.60192,
2007-01-22, 19:00:00,VALID,918.882,VALID,0,VALID,68.5408,VALID,392.342,VALID,25.9016,VALID,131,VALID,1.008,
2007-01-22, 19:01:00,VALID,918.868,VALID,0,VALID,70.9365,VALID,394.618,VALID,26.0018,VALID,254,VALID,1.12464,
2007-01-22, 19:02:00,VALID,918.88,VALID,0,VALID,71.922,VALID,396.536,VALID,26.1929,VALID,271,VALID,0.747456,
2007-01-22, 19:03:00,VALID,918.847,VALID,0,VALID,67.8121,VALID,401.274,VALID,26.1857,VALID,137,VALID,1.12835,
2007-01-22, 19:04:00,VALID,918.854,VALID,0,VALID,71.1437,VALID,405.927,VALID,26.2478,VALID,258,VALID,0.775254,
2007-01-22, 19:05:00,VALID,918.827,VALID,0,VALID,71.8418,VALID,411.836,VALID,26.4075,VALID,246,VALID,0.502344,
2007-01-22, 19:06:00,VALID,918.819,VALID,0,VALID,72.9469,VALID,421.736,VALID,26.6399,VALID,249,VALID,0.375347,
2007-01-22, 19:07:00,VALID,918.803,VALID,0,VALID,70.8843,VALID,436.305,VALID,26.6622,VALID,229,VALID,0.880022,
2007-01-22, 19:08:00,VALID,918.776,VALID,0,VALID,72.5247,VALID,450.451,VALID,26.7433,VALID,244,VALID,0.933321,
2007-01-22, 19:09:00,VALID,918.789,VALID,0,VALID,70.3948,VALID,458.211,VALID,26.6913,VALID,169,VALID,0.325218,
2007-01-22, 19:10:00,VALID,918.778,VALID,0,VALID,70.7826,VALID,459.111,VALID,26.7854,VALID,266,VALID,1.08175,
2007-01-22, 19:11:00,VALID,918.772,VALID,0,VALID,67.8922,VALID,465.224,VALID,26.9144,VALID,252,VALID,1.53363,
2007-01-22, 19:12:00,VALID,918.761,VALID,0,VALID,63.9414,VALID,539.09,VALID,26.7656,VALID,228,VALID,0.754001,
2007-01-22, 19:13:00,VALID,918.757,VALID,0,VALID,66.5888,VALID,826.033,VALID,26.7883,VALID,240,VALID,0.699405,
2007-01-22, 19:14:00,VALID,918.728,VALID,0,VALID,66.5545,VALID,909.374,VALID,26.9521,VALID,234,VALID,0.676781,
2007-01-22, 19:15:00,VALID,918.692,VALID,0,VALID,65.0121,VALID,598.557,VALID,27.0663,VALID,251,VALID,1.47563,
2007-01-22, 19:16:00,VALID,918.682,VALID,0,VALID,66.9919,VALID,855.46,VALID,27.011,VALID,266,VALID,1.1495,
2007-01-22, 19:17:01,VALID,918.672,VALID,0,VALID,66.566,VALID,1126.42,VALID,27.131,VALID,185,VALID,0.483132,
2007-01-22, 19:18:00,VALID,918.645,VALID,0,VALID,66.9932,VALID,1047.28,VALID,27.3182,VALID,147,VALID,0.553013,
2007-01-22, 19:19:00,VALID,918.623,VALID,0,VALID,64.5339,VALID,978.741,VALID,27.3398,VALID,136,VALID,1.51104,
2007-01-22, 19:20:00,VALID,918.601,VALID,0,VALID,65.7483,VALID,958.653,VALID,27.2765,VALID,113,VALID,0.91673,
2007-01-22, 19:21:01,VALID,918.565,VALID,0,VALID,64.5759,VALID,914.554,VALID,27.4022,VALID,101,VALID,0.927507,
2007-01-22, 19:22:00,VALID,918.536,VALID,0,VALID,67.2018,VALID,1017.58,VALID,27.7166,VALID,98,VALID,0.699219,
2007-01-22, 19:23:00,VALID,918.524,VALID,0,VALID,66.6842,VALID,994.363,VALID,27.9376,VALID,249,VALID,0.916146,
2007-01-22, 19:24:00,VALID,918.495,VALID,0,VALID,66.5405,VALID,985.975,VALID,28.1147,VALID,270,VALID,1.30208,
2007-01-22, 19:25:01,VALID,918.491,VALID,0,VALID,65.7699,VALID,973.222,VALID,28.1668,VALID,244,VALID,1.53726,
2007-01-22, 19:26:00,VALID,918.457,VALID,0,VALID,66.0891,VALID,959.909,VALID,28.15,VALID,254,VALID,1.30043,
2007-01-22, 19:27:00,VALID,918.445,VALID,0,VALID,66.1857,VALID,950.077,VALID,28.2305,VALID,283,VALID,0.792969,
2007-01-22, 19:28:00,VALID,918.415,VALID,0,VALID,66.0624,VALID,944.151,VALID,28.215,VALID,221,VALID,0.858445,
2007-01-22, 19:29:00,VALID,918.41,VALID,0,VALID,65.7687,VALID,933.759,VALID,28.3792,VALID,289,VALID,0.561198,
2007-01-22, 19:30:01,VALID,918.409,VALID,0,VALID,63.8066,VALID,926.372,VALID,28.4921,VALID,182,VALID,1.18857,
2007-01-22, 19:31:00,VALID,918.389,VALID,0,VALID,61.2901,VALID,918.731,VALID,27.9268,VALID,187,VALID,1.1967,
2007-01-22, 19:32:00,VALID,918.352,VALID,0,VALID,62.9215,VALID,917.237,VALID,27.6056,VALID,202,VALID,1.11052,
2007-01-22, 19:33:00,VALID,918.349,VALID,0,VALID,66.4515,VALID,902.786,VALID,27.658,VALID,123,VALID,1.0033,
2007-01-22, 19:34:00,VALID,918.346,VALID,0,VALID,66.4998,VALID,915.742,VALID,27.7453,VALID,166,VALID,1.33079,
2007-01-22, 19:35:00,VALID,918.318,VALID,0,VALID,64.4576,VALID,946.019,VALID,27.5276,VALID,176,VALID,1.09947,
2007-01-22, 19:36:01,VALID,918.306,VALID,0,VALID,64.6611,VALID,984.752,VALID,27.3308,VALID,153,VALID,2.86488,
2007-01-22, 19:37:00,VALID,918.328,VALID,0,VALID,65.4101,VALID,905.452,VALID,26.8051,VALID,148,VALID,2.25818,
2007-01-22, 19:38:01,VALID,918.299,VALID,0,VALID,66.7033,VALID,918.782,VALID,26.8471,VALID,147,VALID,1.09414,
2007-01-22, 19:39:00,VALID,918.279,VALID,0,VALID,64.0914,VALID,867.754,VALID,26.6984,VALID,137,VALID,2.89379,
2007-01-22, 19:40:01,VALID,918.242,VALID,0,VALID,65.4393,VALID,932.146,VALID,26.4883,VALID,128,VALID,3.06339,
2007-01-22, 19:41:00,VALID,918.259,VALID,0,VALID,67.0975,VALID,985.822,VALID,26.5038,VALID,153,VALID,1.66848,
2007-01-22, 19:42:01,VALID,918.252,VALID,0,VALID,67.437,VALID,957.549,VALID,26.6564,VALID,147,VALID,1.31008,
2007-01-22, 19:43:01,VALID,918.228,VALID,0,VALID,67.114,VALID,633.028,VALID,26.8795,VALID,282,VALID,0.898438,
2007-01-22, 19:44:00,VALID,918.24,VALID,0,VALID,67.2552,VALID,394.04,VALID,27.0476,VALID,190,VALID,0.604725,
2007-01-22, 19:45:00,VALID,918.22,VALID,0,VALID,66.098,VALID,789.184,VALID,27.0735,VALID,197,VALID,1.03779,
2007-01-22, 19:46:01,VALID,918.211,VALID,0,VALID,67.5998,VALID,767.788,VALID,27.0796,VALID,245,VALID,1.15168,
2007-01-22, 19:47:00,VALID,918.214,VALID,0,VALID,67.9037,VALID,600.918,VALID,27.2823,VALID,155,VALID,1.1915,
2007-01-22, 19:48:00,VALID,918.203,VALID,0,VALID,65.3617,VALID,1007.32,VALID,27.4356,VALID,69,VALID,0.878255,
2007-01-22, 19:49:00,VALID,918.184,VALID,0,VALID,65.2562,VALID,1026.25,VALID,27.736,VALID,336,VALID,0.645232,
2007-01-22, 19:50:00,VALID,918.183,VALID,0,VALID,65.0591,VALID,1032.79,VALID,28.1187,VALID,27,VALID,0.40997,
2007-01-22, 19:51:00,VALID,918.163,VALID,0,VALID,63.5688,VALID,1073.97,VALID,28.4278,VALID,126,VALID,0.548921,
2007-01-22, 19:52:01,VALID,918.149,VALID,0,VALID,63.1148,VALID,1052.13,VALID,28.6319,VALID,158,VALID,0.700195,
2007-01-22, 19:53:00,VALID,918.138,VALID,0,VALID,61.3816,VALID,1071.73,VALID,28.5158,VALID,132,VALID,2.3457,
2007-01-22, 19:54:00,VALID,918.148,VALID,0,VALID,61.9208,VALID,768.586,VALID,28.1884,VALID,141,VALID,1.80843,
2007-01-22, 19:55:00,VALID,918.109,VALID,0,VALID,61.8254,VALID,421.787,VALID,27.6354,VALID,143,VALID,2.22066,
2007-01-22, 19:56:01,VALID,918.118,VALID,0,VALID,64.9014,VALID,420.377,VALID,27.3469,VALID,164,VALID,1.09975,
2007-01-22, 19:57:01,VALID,918.135,VALID,0,VALID,65.742,VALID,400.306,VALID,27.4802,VALID,192,VALID,0.670573,
2007-01-22, 19:58:00,VALID,918.115,VALID,0,VALID,64.7806,VALID,385.567,VALID,27.3149,VALID,153,VALID,1.83132,
2007-01-22, 19:59:01,VALID,918.09,VALID,0,VALID,64.6433,VALID,379.437,VALID,26.8174,VALID,134,VALID,3.51926,
2007-01-22, 20:00:00,VALID,918.082,VALID,0,VALID,66.8762,VALID,406.08,VALID,26.4715,VALID,116,VALID,1.93968,
2007-01-22, 20:01:00,VALID,918.037,VALID,0,VALID,68.0169,VALID,453.1,VALID,26.5329,VALID,143,VALID,1.60547,
2007-01-22, 20:02:01,VALID,918.036,VALID,0,VALID,71.042,VALID,494.465,VALID,26.6974,VALID,267,VALID,2.71893,
2007-01-22, 20:03:00,VALID,918.061,VALID,0,VALID,69.8403,VALID,511.972,VALID,26.8946,VALID,107,VALID,0.568026,
2007-01-22, 20:04:00,VALID,918.03,VALID,0,VALID,68.509,VALID,508.542,VALID,27.1371,VALID,140,VALID,0.860283,
2007-01-22, 20:05:00,VALID,918.015,VALID,0,VALID,67.8172,VALID,495.399,VALID,27.27,VALID,161,VALID,0.765434,
2007-01-22, 20:06:01,VALID,917.967,VALID,0,VALID,67.1484,VALID,484.684,VALID,27.3473,VALID,164,VALID,1.15007,
2007-01-22, 20:07:00,VALID,917.955,VALID,0,VALID,67.5667,VALID,451.707,VALID,27.4184,VALID,234,VALID,0.772773,
2007-01-22, 20:08:00,VALID,917.944,VALID,0,VALID,67.5184,VALID,442.911,VALID,27.5222,VALID,227,VALID,0.119234,
2007-01-22, 20:09:00,VALID,917.932,VALID,0,VALID,67.4217,VALID,446.545,VALID,27.7285,VALID,131,VALID,1.02453,
2007-01-22, 20:10:00,VALID,917.893,VALID,0,VALID,64.9536,VALID,468.603,VALID,27.3081,VALID,181,VALID,1.46205,
2007-01-22, 20:11:00,VALID,917.882,VALID,0,VALID,65.5067,VALID,530.43,VALID,27.1012,VALID,160,VALID,0.598586,
2007-01-22, 20:12:00,VALID,917.862,VALID,0,VALID,65.494,VALID,422.602,VALID,27.1148,VALID,138,VALID,1.32741,
2007-01-22, 20:13:00,VALID,917.829,VALID,0,VALID,65.6542,VALID,492.189,VALID,27.0171,VALID,155,VALID,1.3121,
2007-01-22, 20:14:00,VALID,917.781,VALID,0,VALID,66.463,VALID,504.45,VALID,26.8946,VALID,134,VALID,1.2431,
2007-01-22, 20:15:01,VALID,917.754,VALID,0,VALID,69.4576,VALID,519.053,VALID,27.0401,VALID,277,VALID,2.80545,
2007-01-22, 20:16:01,VALID,917.733,VALID,0,VALID,70.129,VALID,457.548,VALID,27.1982,VALID,282,VALID,2.36272,
2007-01-22, 20:17:00,VALID,917.727,VALID,0,VALID,71.2124,VALID,388.963,VALID,27.4734,VALID,240,VALID,0.784339,
2007-01-22, 20:18:00,VALID,917.715,VALID,0,VALID,68.6183,VALID,349.296,VALID,27.5768,VALID,95,VALID,0.940304,
2007-01-22, 20:19:01,VALID,917.699,VALID,0,VALID,67.5718,VALID,416.472,VALID,27.7288,VALID,326,VALID,0.830602,
2007-01-22, 20:20:01,VALID,917.668,VALID,0,VALID,69.4805,VALID,442.113,VALID,27.7346,VALID,270,VALID,1.27668,
2007-01-22, 20:21:01,VALID,917.64,VALID,0,VALID,69.9472,VALID,424.096,VALID,27.7181,VALID,271,VALID,1.06042,
2007-01-22, 20:22:00,VALID,917.63,VALID,0,VALID,68.1211,VALID,402.836,VALID,27.6987,VALID,270,VALID,0.911458,
2007-01-22, 20:23:01,VALID,917.625,VALID,0,VALID,69.4004,VALID,386.127,VALID,27.7605,VALID,276,VALID,1.30487,
2007-01-22, 20:24:00,VALID,917.604,VALID,0,VALID,70.5334,VALID,376.805,VALID,27.9419,VALID,265,VALID,1.29573,
2007-01-22, 20:25:00,VALID,917.581,VALID,0,VALID,69.146,VALID,377.297,VALID,28.0027,VALID,272,VALID,1.86354,
2007-01-22, 20:26:00,VALID,917.583,VALID,0,VALID,68.6043,VALID,386.654,VALID,27.8535,VALID,268,VALID,2.1609,
2007-01-22, 20:27:01,VALID,917.556,VALID,0,VALID,69.3101,VALID,406.046,VALID,27.5151,VALID,268,VALID,2.56523,
2007-01-22, 20:28:01,VALID,917.545,VALID,0,VALID,70.4469,VALID,430.43,VALID,27.1953,VALID,281,VALID,2.6568,
2007-01-22, 20:29:01,VALID,917.556,VALID,0,VALID,70.5194,VALID,452.896,VALID,27.0268,VALID,269,VALID,2.52671,
2007-01-22, 20:30:00,VALID,917.563,VALID,0,VALID,70.6338,VALID,474.207,VALID,26.8329,VALID,265,VALID,2.52697,
2007-01-22, 20:31:00,VALID,917.541,VALID,0,VALID,70.9657,VALID,514.893,VALID,26.6127,VALID,256,VALID,1.92205,
2007-01-22, 20:32:00,VALID,917.547,VALID,0,VALID,72.5336,VALID,601.291,VALID,26.6676,VALID,310,VALID,0.686979,
2007-01-22, 20:33:01,VALID,917.519,VALID,0,VALID,72.2704,VALID,560.724,VALID,26.9137,VALID,339,VALID,0.597929,
2007-01-22, 20:34:00,VALID,917.5,VALID,0,VALID,70.7979,VALID,559.06,VALID,27.1461,VALID,327,VALID,0.471875,
2007-01-22, 20:35:00,VALID,917.464,VALID,0,VALID,69.9522,VALID,575.82,VALID,27.3352,VALID,240,VALID,0.996264,
2007-01-22, 20:36:00,VALID,917.437,VALID,0,VALID,71.7592,VALID,532.757,VALID,27.426,VALID,274,VALID,1.75,
2007-01-22, 20:37:00,VALID,917.405,VALID,0,VALID,70.4736,VALID,583.665,VALID,27.4807,VALID,275,VALID,2.23899,
2007-01-22, 20:38:01,VALID,917.363,VALID,0,VALID,71.4578,VALID,619.308,VALID,27.4742,VALID,282,VALID,0.977706,
2007-01-22, 20:39:01,VALID,917.338,VALID,0,VALID,71.7338,VALID,649.687,VALID,27.5611,VALID,272,VALID,2.73977,
2007-01-22, 20:40:01,VALID,917.315,VALID,0,VALID,70.6872,VALID,755.324,VALID,27.4932,VALID,273,VALID,2.28659,
2007-01-22, 20:41:00,VALID,917.311,VALID,0,VALID,73.3919,VALID,689.541,VALID,27.5518,VALID,263,VALID,1.67842,
2007-01-22, 20:42:01,VALID,917.319,VALID,0,VALID,73.7594,VALID,818.816,VALID,27.7383,VALID,270,VALID,2.16797,
2007-01-22, 20:43:00,VALID,917.293,VALID,0,VALID,71.6295,VALID,651.334,VALID,28.0487,VALID,288,VALID,1.79327,
2007-01-22, 20:44:01,VALID,917.318,VALID,0,VALID,69.8378,VALID,775.09,VALID,28.2079,VALID,171,VALID,1.29809,
2007-01-22, 20:45:01,VALID,917.277,VALID,0,VALID,68.8383,VALID,649.109,VALID,28.3074,VALID,248,VALID,1.51953,
2007-01-22, 20:46:01,VALID,917.269,VALID,0,VALID,69.4703,VALID,339.786,VALID,28.496,VALID,284,VALID,2.0657,
2007-01-22, 20:47:00,VALID,917.283,VALID,0,VALID,70.0832,VALID,302.683,VALID,28.5571,VALID,270,VALID,1.72771,